Regional Weather Roundup
Issued by NWS

Home | Current Version | Previous Version | Graphics & Text | Print | Product List | Glossary On
Versions: 1 2 3 4 5 6 7 8 9 10 11 12 13 14 15 16 17 18 19 20 21 22 23 24 25 26 27 28 29 30 31 32 33 34 35 36 37 38 39 40 41 42 43 44 45 46 47 48 49 50
621
ASUS43 KMKX 091821
RWRWI

WISCONSIN REGIONAL WEATHER ROUNDUP
NATIONAL WEATHER SERVICE MILWAUKEE/SULLIVAN WI
1200 PM CST TUE FEB 09 2016

NOTE: "FAIR" INDICATES FEW OR NO CLOUDS BELOW 12,000 FEET WITH NO
SIGNIFICANT WEATHER AND/OR OBSTRUCTIONS TO VISIBILITY.

WIZ001-002-006>008-014>016-023>028-091900-
NORTHWEST WISCONSIN

CITY           SKY/WX    TMP DP  RH WIND       PRES   REMARKS
SUPERIOR ARPT  SUNNY     10  -2  58 NW15      30.11F WCI  -7
6HR MIN TEMP:   3; 6HR MAX TEMP:  10;

ASHLAND        LGT SNOW  10   3  73 NW10      30.05R WCI  -4
6HR MIN TEMP:   6; 6HR MAX TEMP:  10; 6HR PCP: TRACE;

HAYWARD        CLOUDY     8   0  69 N10       30.01S WCI  -6
6HR MIN TEMP:   2; 6HR MAX TEMP:   9; 6HR PCP: TRACE;

SIREN          SUNNY     10  -3  55 N13       30.08S WCI  -5
6HR MIN TEMP:   1; 6HR MAX TEMP:  10;

CUMBERLAND     SUNNY      9  -2  61 NW15G21   30.02S WCI  -8
RICE LAKE      SUNNY      9  -3  57 NW12G18   30.05R WCI  -5
6HR MIN TEMP:   2; 6HR MAX TEMP:   9;

CHETEK         SUNNY      9  -3  58 NW9       30.02F WCI  -4
6HR MIN TEMP:   2; 6HR MAX TEMP:   9;

LADYSMITH      PTSUNNY   10   1  65 N15       29.99S WCI  -6
6HR MIN TEMP:   5; 6HR MAX TEMP:  10;

EAU CLAIRE     SUNNY      9  -5  53 NW10      30.03S WCI  -5
6HR MIN TEMP:   3; 6HR MAX TEMP:   9;

MENOMONIE      SUNNY     13  -4  47 NW16      30.05S WCI  -3
6HR MIN TEMP:   4; 6HR MAX TEMP:  13;

NEW RICHMOND   SUNNY     10  -1  60 NW16      30.07F WCI  -7
6HR MIN TEMP:   3; 6HR MAX TEMP:  10;

OSCEOLA        SUNNY     11   0  59 NW12      30.12F WCI  -3
6HR MIN TEMP:   3; 6HR MAX TEMP:  11;

$$

WIZ003>005-009-010-017-018-091900-
NORTH CENTRAL WISCONSIN

CITY           SKY/WX    TMP DP  RH WIND       PRES   REMARKS
MANITOWISH WTR LGT SNOW  10   5  78 N12G22    29.86S VSB 3/4 WCI  -4
6HR MIN TEMP:   9; 6HR MAX TEMP:  11;

ARBOR VITAE    CLOUDY    13   5  71 N18G30    29.84S HAZE    WCI  -4
6HR MIN TEMP:  11; 6HR MAX TEMP:  13;

WOODRUFF       CLOUDY    13   5  71 N18G30    29.84S HAZE    WCI  -4
6HR MIN TEMP:  11; 6HR MAX TEMP:  13;

RHINELANDER    CLOUDY    13   2  61 N14G22    29.82S WCI  -2
6HR MIN TEMP:  10; 6HR MAX TEMP:  13; 6HR PCP:  0.01;

EAGLE RIVER    LGT SNOW  12   3  66 N20G28    29.81S WCI  -6
LAND O LAKES   LGT SNOW  11   5  76 N20       29.82S VSB 3/4 WCI  -7
6HR MIN TEMP:   9; 6HR MAX TEMP:  11;

PHILLIPS       CLOUDY     9   2  73 N10G22    29.90R WCI  -6
6HR MIN TEMP:   6; 6HR MAX TEMP:   9;

TOMAHAWK       CLOUDY    14   4  65 N10G23    29.85S HAZE    WCI   1
6HR MIN TEMP:   8; 6HR MAX TEMP:  14;

MEDFORD        CLOUDY    11   4  72 N21G26    29.87R HAZE    WCI  -7
6HR MIN TEMP:   5; 6HR MAX TEMP:  12;

MERRILL        CLOUDY    16   5  63 N16G24    29.85R WCI   0
6HR MIN TEMP:   9; 6HR MAX TEMP:  16;

$$

WIZ029-030-035-036-043>047-091900-
CENTRAL WISCONSIN

CITY           SKY/WX    TMP DP  RH WIND       PRES   REMARKS
WAUSAU         CLOUDY    17   5  59 N15G26    29.83S WCI   2
6HR MIN TEMP:  10; 6HR MAX TEMP:  17; 6HR PCP: TRACE;

MOSINEE        CLOUDY    12   9  85 NW18G24   29.85S FOG     WCI  -5
MARSHFIELD     CLOUDY    14   2  58 NW24      29.87S WCI  -5
6HR MIN TEMP:   6; 6HR MAX TEMP:  13; 6HR PCP: TRACE;

STEVENS POINT  LGT SNOW  12   4  71 NW12      29.85F WCI  -2
6HR MIN TEMP:   7; 6HR MAX TEMP:  12;

WAUPACA        CLOUDY    20   8  61 NW14      29.84F HAZE    WCI   6
6HR MIN TEMP:  12; 6HR MAX TEMP:  20;

WAUTOMA        CLOUDY    15   3  59 NW15G25   29.87F WCI   0
6HR MIN TEMP:   9; 6HR MAX TEMP:  15; 6HR PCP: TRACE;

WISC RAPIDS    CLOUDY    13   2  61 N15G26    29.89F WCI  -3
6HR MIN TEMP:   7; 6HR MAX TEMP:  13; 6HR PCP: TRACE;

CAMP DOUGLAS   PTSUNNY   14   5  67 NW20G25   29.92F WCI  -3
                                      6HR PCP:  0.01;

$$

WIZ011>013-019>022-031-037>040-048>050-091900-
NORTHEAST WISCONSIN

CITY           SKY/WX    TMP DP  RH WIND       PRES   REMARKS
ANTIGO         LGT SNOW  13   6  72 N22       29.79F WCI  -6
6HR MIN TEMP:   9; 6HR MAX TEMP:  13;

SHAWANO        CLOUDY    19   7  58 N9G17     29.83F WCI   9
6HR MIN TEMP:  14; 6HR MAX TEMP:  20;

OCONTO         CLOUDY    17   5  58 N15G24    29.81F WCI   2
6HR MIN TEMP:  13; 6HR MAX TEMP:  17;

STURGEON BAY   CLOUDY    18   5  57 N17G26    29.79F WCI   2
6HR MIN TEMP:  14; 6HR MAX TEMP:  18;

GREEN BAY      CLOUDY    18   6  59 NW16      29.81F WCI   3
6HR MIN TEMP:  13; 6HR MAX TEMP:  18; 6HR PCP:  0.01;

MANITOWOC      FLURRIES  18   8  65 NW18G26   29.80S WCI   2
6HR MIN TEMP:  12; 6HR MAX TEMP:  18; 6HR PCP: TRACE;

APPLETON       PTSUNNY   18   5  57 NW12G21   29.80F WCI   5
CLINTONVILLE   CLOUDY    19   9  63 NW13      29.83F HAZE    WCI   7
OSHKOSH        LGT SNOW  15   8  73 NW14      29.82F WCI   0
6HR MIN TEMP:  10; 6HR MAX TEMP:  16; 6HR PCP: TRACE;

$$

WIZ032>034-041-042-053>061-091900-
SOUTHWEST WISCONSIN

CITY           SKY/WX    TMP DP  RH WIND       PRES   REMARKS
LA CROSSE      SUNNY     11  -1  58 NW15      30.03S WCI  -5
6HR MIN TEMP:   6; 6HR MAX TEMP:  11;

SPARTA         MOSUNNY   12   2  63 NW14G21   29.99S WCI  -3
6HR MIN TEMP:   8; 6HR MAX TEMP:  12;

VIROQUA        MOSUNNY   10   1  66 NW16      29.94S WCI  -7
6HR MIN TEMP:   5; 6HR MAX TEMP:  10;

BOSCOBEL       MIX PCPN  15   2  56 NW15G24   29.99S WCI   0
6HR MIN TEMP:  10; 6HR MAX TEMP:  16; 6HR PCP: TRACE;

PRAIRIE DU CHI MOSUNNY   13   1  56 NW15      30.01S WCI  -2
6HR MIN TEMP:   9; 6HR MAX TEMP:  13;

PLATTEVILLE    SUNNY     13   5  69 NW17      29.93S WCI  -4
6HR MIN TEMP:   9; 6HR MAX TEMP:  13;

$$

WIZ056-057-062-063-064-067-068-091900-
SOUTH CENTRAL WISCONSIN

CITY           SKY/WX    TMP DP  RH WIND       PRES   REMARKS
REEDSBURG      PTSUNNY   13   3  62 NW14G20   29.91F WCI  -2
6HR MIN TEMP:   8; 6HR MAX TEMP:  14;

BARABOO/DELLS  CLOUDY    13   2  62 NW14G23   29.89F WCI  -2
6HR MIN TEMP:   8; 6HR MAX TEMP:  14;

LONE ROCK      MIX PCPN  15   3  59 NW15G22   29.95S WCI   0
6HR MIN TEMP:   9; 6HR MAX TEMP:  15; 6HR PCP: TRACE;

MINERAL POINT  SUNNY     14   3  62 NW16G23   29.90S WCI  -2
MADISON        FLURRIES  13   3  64 NW16G23   29.88S WCI  -3
6HR MIN TEMP:   9; 6HR MAX TEMP:  14; 6HR PCP: TRACE;

MIDDLETON      MOSUNNY   16   6  65 NW17      29.88F WCI   0
6HR MIN TEMP:  11; 6HR MAX TEMP:  16;

WATERTOWN      PTSUNNY   15   6  69 NW14G20   29.85S WCI   0
6HR MIN TEMP:  10; 6HR MAX TEMP:  15;

MONROE         CLOUDY    18   7  62 NW13G20   29.86F WCI   4
JANESVILLE     PTSUNNY   18   7  62 NW17G24   29.87S WCI   2
$$

WIZ051-052-058>065-066-070>072-091900-
SOUTHEAST WISCONSIN

CITY           SKY/WX    TMP DP  RH WIND       PRES   REMARKS
MILWAUKEE      PTSUNNY   18   6  59 NW15G21   29.82S WCI   4
6HR MIN TEMP:  13; 6HR MAX TEMP:  18; 6HR PCP: TRACE;

WAUKESHA       CLOUDY    14   7  73 NW17G29   29.83S WCI  -3
MILWAUKEE/TIMM PTSUNNY   16   5  62 NW17      29.83S WCI   0
RACINE         CLOUDY    18   6  59 NW10G21   29.83S WCI   6
6HR MIN TEMP:  13; 6HR MAX TEMP:  18; 6HR PCP: TRACE;

BURLINGTON     CLOUDY    15   5  66 NW18G24   29.83F WCI  -2
6HR MIN TEMP:  10; 6HR MAX TEMP:  15;

KENOSHA        MOSUNNY   17   7  64 NW14      29.82S WCI   3
6HR MIN TEMP:  13; 6HR MAX TEMP:  18; 6HR PCP: TRACE;

FOND DU LAC    MIX PCPN  16   7  67 NW18      29.83S WCI   0
6HR MIN TEMP:  11; 6HR MAX TEMP:  16; 6HR PCP: TRACE;

SHEBOYGAN      CLOUDY    17   7  64 NW17G24   29.80S WCI   1
6HR MIN TEMP:  12; 6HR MAX TEMP:  17; 6HR PCP: TRACE;

WEST BEND      CLOUDY    16   7  67 NW15G22   29.81S WCI   1
JUNEAU         MOSUNNY   13   5  69 W14G20    29.85S WCI  -2
6HR MIN TEMP:   9; 6HR MAX TEMP:  13;

$$

LSZ147-162-091900-
LAKE SUPERIOR

STATION/POSITION TIME  TEMP    WIND        PRES    WAVE
                       AIR SEA DIR/SP/G            HT/PER
                 (UTC) (F)     (DEG/KT/KT) (MB)    (FT/S)
DEVILS ISLAND    1800    9     330/ 18/ 22 1019.3F
SAXON HARBOR     1740   12                 1016.6R
$$

LMZ867-665-643>646-091900-
LAKE MICHIGAN

STATION/POSITION TIME  TEMP    WIND        PRES    WAVE
                       AIR SEA DIR/SP/G            HT/PER
                 (UTC) (F)     (DEG/KT/KT) (MB)    (FT/S)
CHAMBERS ISLAND  1700C1F1C2F2C3F3C4F4C5F5C6F6C7F7C8M1C9M2Ca!



USA.gov is the U.S. government's official web portal to all federal, state and local government web resources and services.